Date,TemperatureHighF,TemperatureAvgF,TemperatureLowF,DewpointHighF,DewpointAvgF,DewpointLowF,HumidityHigh,HumidityAvg,HumidityLow,PressureMaxIn,PressureMinIn,WindSpeedMaxMPH,WindSpeedAvgMPH,GustSpeedMaxMPH,PrecipitationSumIn
2013-1-1,29.0,24.0,20.0,22.0,16.4,12.0,84,72,50,0.00,40.00,10,5,0,0.00
2013-1-2,22.0,19.8,15.0,17.0,14.4,9.0,81,78,74,0.00,40.00,10,6,0,0.00
2013-1-3,29.0,21.7,13.0,24.0,15.7,4.0,86,77,66,0.00,40.00,12,7,0,0.00
2013-1-4,27.0,23.3,17.0,22.0,17.8,12.0,87,79,68,0.00,40.00,13,10,0,0.00
2013-1-5,34.0,27.3,20.0,31.0,22.8,17.0,96,83,68,0.00,40.00,11,6,0,0.00
2013-1-6,34.0,32.4,30.0,31.0,28.2,25.0,91,84,74,0.00,40.00,14,9,0,0.00
2013-1-7,34.0,28.3,21.0,26.0,22.8,19.0,93,79,66,0.00,40.00,14,7,0,0.00
2013-1-8,37.0,30.4,25.0,27.0,24.0,21.0,85,76,64,0.00,40.00,7,5,0,0.00
2013-1-9,45.0,38.4,33.0,32.0,28.7,25.0,80,68,47,0.00,40.00,19,10,0,0.00
2013-1-10,39.0,32.4,24.0,32.0,27.3,23.0,95,81,64,0.00,40.00,9,4,0,0.19
2013-1-11,54.0,46.0,35.0,51.0,43.4,34.0,97,90,80,0.00,40.00,15,8,0,0.65
2013-1-12,57.0,50.4,42.0,48.0,45.0,39.0,89,81,69,0.00,40.00,10,7,0,0.10
2013-1-13,41.0,34.1,27.0,38.0,33.0,24.0,98,96,89,0.00,40.00,12,6,0,0.45
2013-1-14,24.0,21.7,18.0,21.0,16.7,14.0,86,80,74,0.00,40.00,0,0,0,0.00
2013-1-15,30.0,20.2,11.0,20.0,15.6,9.0,92,82,62,0.00,40.00,2,0,0,0.10
2013-1-16,34.0,25.9,17.0,27.0,19.6,16.0,94,78,51,0.00,40.00,13,6,0,0.00
2013-1-17,33.0,28.4,22.0,28.0,21.2,14.0,89,74,65,0.00,40.00,20,9,0,0.00
2013-1-18,36.0,28.0,22.0,24.0,19.0,14.0,81,68,56,0.00,40.00,14,8,0,0.00
2013-1-19,45.0,39.9,36.0,35.0,29.8,25.0,74,66,59,0.00,40.00,15,11,0,0.00
2013-1-20,42.0,21.7,17.0,31.0,13.2,8.0,78,69,56,0.00,40.00,28,16,0,0.00
2013-1-21,18.0,13.4,8.0,13.0,7.7,3.0,88,77,63,0.00,40.00,19,12,0,0.00
2013-1-22,9.0,5.9,3.0,4.0,1.2,-4.0,87,80,65,0.00,40.00,15,9,0,0.00
2013-1-23,16.0,10.6,6.0,14.0,5.2,1.0,93,79,62,0.00,40.00,16,7,0,0.00
2013-1-24,20.0,10.4,-1.0,16.0,4.0,-5.0,92,76,51,0.00,40.00,14,3,0,0.02
2013-1-25,23.0,18.3,14.0,19.0,12.4,2.0,92,78,57,0.00,40.00,7,5,0,0.00
2013-1-26,26.0,21.6,17.0,21.0,17.2,14.0,93,83,68,0.00,40.00,8,4,0,0.01
2013-1-27,30.0,23.8,16.0,27.0,18.2,13.0,91,79,67,0.00,40.00,10,5,0,0.00
2013-1-28,46.0,38.8,32.0,45.0,38.1,29.0,99,97,90,0.00,40.00,9,6,0,0.19
2013-1-29,57.0,50.3,36.0,55.0,49.4,35.0,99,96,88,0.00,40.00,12,8,0,0.77
2013-1-30,56.0,46.8,29.0,55.0,45.3,26.0,98,94,84,0.00,40.00,19,9,0,0.74
2013-1-31,27.0,17.3,14.0,25.0,13.2,10.0,90,83,75,0.00,40.00,18,15,0,0.00
2013-2-1,14.0,10.1,7.0,11.0,4.9,1.0,89,79,65,0.00,40.00,16,11,0,0.00
2013-2-2,22.0,15.1,5.0,19.0,11.5,2.0,93,85,73,0.00,40.00,10,7,0,0.00
2013-2-3,20.0,14.8,6.0,17.0,11.5,3.0,90,86,82,0.00,40.00,15,6,0,0.00
2013-2-4,24.0,19.7,17.0,22.0,17.7,14.0,94,91,83,0.00,40.00,6,4,0,0.00
2013-2-5,28.0,19.0,2.0,27.0,16.5,-1.0,95,90,77,0.00,40.00,11,5,0,0.01
2013-2-6,32.0,24.7,14.0,25.0,17.9,13.0,93,76,56,0.00,40.00,11,4,0,0.25
2013-2-7,39.0,30.4,24.0,31.0,23.9,18.0,97,76,62,0.00,40.00,8,5,0,0.00
2013-2-8,33.0,28.3,20.0,31.0,24.6,17.0,98,86,66,0.00,40.00,15,9,0,0.00
2013-2-9,32.0,20.7,8.0,20.0,15.1,7.0,94,79,60,0.00,40.00,6,3,0,0.08
2013-2-10,41.0,33.5,26.0,39.0,27.2,20.0,94,77,68,0.00,40.00,9,6,0,0.03
2013-2-11,45.0,36.4,30.0,43.0,29.4,23.0,95,75,64,0.00,40.00,21,16,0,0.01
2013-2-12,30.0,28.5,27.0,24.0,22.9,22.0,81,79,75,0.00,40.00,15,10,0,0.00
2013-2-13,41.0,31.3,23.0,29.0,24.5,20.0,90,76,60,0.00,40.00,8,4,0,0.00
2013-2-14,38.0,34.8,32.0,33.0,30.0,26.0,91,82,72,0.00,40.00,18,10,0,0.00
2013-2-15,32.0,27.2,22.0,27.0,20.5,16.0,89,76,60,0.00,40.00,13,9,0,0.00
2013-2-16,22.0,18.2,13.0,20.0,14.1,8.0,95,83,62,0.00,40.00,14,8,0,0.00
2013-2-17,25.0,16.9,5.0,13.0,10.0,3.0,91,75,52,0.00,40.00,6,3,0,0.00
2013-2-18,49.0,33.6,21.0,41.0,23.5,12.0,90,66,54,0.00,40.00,11,7,0,0.08
2013-2-19,44.0,24.2,16.0,40.0,20.6,12.0,92,85,80,0.00,40.00,19,17,0,0.06
2013-2-20,22.0,19.0,16.0,18.0,14.7,13.0,88,83,74,0.00,40.00,14,13,0,0.00
2013-2-21,26.0,22.3,20.0,19.0,16.6,14.0,81,77,75,0.00,40.00,12,8,0,0.00
2013-2-22,32.0,26.4,21.0,32.0,24.6,16.0,98,92,79,0.00,40.00,12,8,0,0.10
2013-2-23,31.0,26.8,24.0,25.0,21.0,18.0,92,78,66,0.00,40.00,10,8,0,0.00
2013-2-24,33.0,27.6,22.0,26.0,22.4,19.0,92,81,73,0.00,40.00,11,6,0,0.00
2013-2-25,39.0,26.9,14.0,26.0,20.6,12.0,95,79,55,0.00,40.00,5,3,0,0.00
2013-2-26,33.0,31.0,29.0,32.0,26.0,22.0,99,82,67,0.00,40.00,18,8,0,0.14
2013-2-27,33.0,32.2,32.0,33.0,32.1,31.0,99,99,99,0.00,40.00,5,3,0,0.25
2013-2-28,36.0,33.3,31.0,32.0,30.8,29.0,99,90,79,0.00,40.00,11,8,0,0.29
2013-3-1,31.0,28.1,24.0,29.0,22.7,19.0,95,79,68,0.00,40.00,12,8,0,0.05
2013-3-2,33.0,24.8,18.0,19.0,16.9,14.0,84,72,52,0.00,40.00,9,6,0,0.00
2013-3-3,29.0,22.5,13.0,17.0,15.1,11.0,91,74,57,0.00,40.00,13,6,0,0.00
2013-3-4,31.0,22.8,11.0,18.0,14.4,9.0,93,71,50,0.00,40.00,6,2,0,0.00
2013-3-5,32.0,28.2,26.0,27.0,20.7,18.0,96,73,61,0.00,40.00,17,10,0,0.00
2013-3-6,38.0,31.1,26.0,28.0,25.6,23.0,92,80,65,0.00,40.00,18,8,0,0.08
2013-3-7,39.0,33.0,28.0,29.0,25.6,21.0,91,75,51,0.00,40.00,9,6,0,0.00
2013-3-8,46.0,29.2,17.0,24.0,20.6,16.0,96,73,39,0.00,40.00,3,1,0,0.00
2013-3-9,41.0,33.8,24.0,33.0,26.1,21.0,87,73,59,0.00,40.00,8,4,0,0.00
2013-3-10,57.0,51.2,41.0,43.0,39.6,33.0,72,64,58,0.00,40.00,7,5,0,0.02
2013-3-11,54.0,45.9,35.0,48.0,41.4,32.0,96,85,55,0.00,40.00,15,8,0,0.21
2013-3-12,34.0,31.9,29.0,32.0,28.3,25.0,97,85,72,0.00,40.00,14,11,0,0.00
2013-3-13,29.0,25.8,23.0,29.0,21.2,15.0,98,83,62,0.00,40.00,18,12,0,0.00
2013-3-14,39.0,28.3,20.0,24.0,18.5,14.0,79,67,47,0.00,40.00,9,5,0,0.00
2013-3-15,44.0,35.3,30.0,37.0,31.1,24.0,96,85,70,0.00,40.00,9,6,0,0.03
2013-3-16,36.0,32.0,29.0,35.0,29.7,24.0,97,90,78,0.00,40.00,11,8,0,0.01
2013-3-17,33.0,28.6,27.0,23.0,20.1,18.0,82,70,55,0.00,40.00,11,8,0,0.00
2013-3-18,33.0,29.5,26.0,33.0,26.6,19.0,98,88,72,0.00,40.00,13,9,0,0.04
2013-3-19,32.0,25.5,20.0,29.0,17.9,16.0,87,73,57,0.00,40.00,20,16,0,0.01
2013-3-20,28.0,22.7,17.0,18.0,15.1,13.0,90,72,63,0.00,40.00,17,13,0,0.00
2013-3-21,27.0,21.0,14.0,24.0,17.5,12.0,92,86,70,0.00,40.00,16,9,0,0.00
2013-3-22,38.0,29.4,25.0,25.0,21.0,17.0,82,71,59,0.00,40.00,11,7,0,0.00
2013-3-23,38.0,29.7,23.0,24.0,22.3,20.0,90,74,55,0.00,40.00,8,5,0,0.00
2013-3-24,36.0,30.4,26.0,25.0,23.7,22.0,87,76,62,0.00,40.00,16,10,0,0.00
2013-3-25,36.0,32.9,29.0,27.0,25.1,22.0,83,73,63,0.00,40.00,16,13,0,0.00
2013-3-26,38.0,34.2,31.0,30.0,28.0,26.0,85,78,67,0.00,40.00,15,10,0,0.00
2013-3-27,42.0,36.0,29.0,31.0,25.8,21.0,94,69,47,0.00,40.00,16,10,0,0.00
2013-3-28,50.0,36.4,27.0,28.0,24.7,22.0,87,65,37,0.00,40.00,11,6,0,0.00
2013-3-29,52.0,37.0,23.0,27.0,21.8,20.0,93,60,27,0.00,40.00,12,4,0,0.00
2013-3-30,54.0,38.8,22.0,30.0,22.2,-99.9,93,60,31,0.00,40.00,9,3,0,0.00
2013-3-31,57.0,48.2,39.0,42.0,34.3,29.0,91,60,36,0.00,40.00,19,10,0,0.00
2013-4-1,38.0,31.9,25.0,29.0,17.3,12.0,81,55,38,0.00,40.00,17,12,0,0.00
2013-4-2,40.0,31.1,23.0,21.0,14.2,7.0,85,53,28,0.00,40.00,17,9,0,0.00
2013-4-3,46.0,33.2,21.0,20.0,12.4,8.0,79,48,20,0.00,40.00,11,5,0,0.00
2013-4-4,56.0,39.3,25.0,21.0,16.3,13.0,73,42,19,0.00,40.00,9,4,0,0.00
2013-4-5,52.0,42.1,33.0,27.0,20.4,11.0,75,45,19,0.00,40.00,13,7,0,0.00
2013-4-6,59.0,45.3,33.0,32.0,24.6,21.0,69,46,29,0.00,40.00,11,8,0,0.00
2013-4-7,59.0,50.6,41.0,46.0,37.9,32.0,81,62,38,0.00,40.00,17,10,0,0.01
2013-4-8,65.0,47.2,38.0,54.0,40.0,31.0,90,76,58,0.00,40.00,24,9,0,0.07
2013-4-9,67.0,50.2,39.0,56.0,45.1,38.0,97,84,59,0.00,40.00,10,4,0,0.00
2013-4-10,49.0,43.2,40.0,46.0,41.5,39.0,96,94,87,0.00,40.00,13,10,0,0.30
2013-4-11,41.0,39.5,38.0,40.0,38.8,38.0,98,97,94,0.00,40.00,15,10,0,0.91
2013-4-12,42.0,38.7,37.0,38.0,36.1,31.0,99,90,75,0.00,40.00,13,8,0,0.37
2013-4-13,40.0,37.5,34.0,34.0,30.1,27.0,88,74,61,0.00,40.00,17,12,0,0.00
2013-4-14,55.0,42.2,33.0,42.0,34.6,28.0,91,75,60,0.00,40.00,11,6,0,0.00
2013-4-15,63.0,54.7,45.0,55.0,46.9,38.0,92,75,67,0.00,40.00,10,6,0,0.11
2013-4-16,55.0,48.0,43.0,53.0,40.7,34.0,96,77,50,0.00,40.00,12,7,0,0.15
2013-4-17,55.0,46.8,42.0,43.0,38.0,34.0,97,71,57,0.00,40.00,13,9,0,0.11
2013-4-18,71.0,57.4,45.0,63.0,54.7,45.0,97,90,75,0.00,40.00,17,9,0,0.93
2013-4-19,58.0,40.9,34.0,57.0,35.8,29.0,98,82,69,0.00,40.00,19,14,0,0.64
2013-4-20,38.0,33.5,30.0,32.0,24.6,18.0,93,70,48,0.00,40.00,14,11,0,0.08
2013-4-21,50.0,36.8,24.0,32.0,25.2,22.0,93,66,42,0.00,40.00,8,4,0,0.09
2013-4-22,62.0,48.3,34.0,34.0,29.2,27.0,80,52,25,0.00,40.00,7,5,0,0.00
2013-4-23,66.0,51.8,42.0,54.0,41.3,33.0,96,68,47,0.00,40.00,10,6,0,0.11
2013-4-24,43.0,39.7,35.0,43.0,34.5,26.0,96,82,51,0.00,40.00,17,11,0,0.31
2013-4-25,48.0,42.1,37.0,37.0,32.4,28.0,87,69,51,0.00,40.00,18,10,0,0.12
2013-4-26,61.0,46.9,32.0,37.0,32.7,29.0,92,60,39,0.00,40.00,9,4,0,0.03
2013-4-27,68.0,55.4,38.0,42.0,32.9,-99.9,91,52,26,0.00,40.00,7,4,0,0.00
2013-4-28,57.0,53.0,49.0,54.0,47.1,39.0,96,81,52,0.00,40.00,6,4,0,0.17
2013-4-29,70.0,56.4,46.0,56.0,51.6,45.0,97,86,53,0.00,40.00,8,3,0,0.01
2013-4-30,77.0,68.9,57.0,59.0,55.9,50.0,79,64,52,0.00,40.00,9,7,0,0.00
2013-5-1,82.0,71.1,59.0,57.0,53.0,50.0,78,55,32,0.00,40.00,7,4,0,0.00
2013-5-2,79.0,70.3,56.0,55.0,52.8,48.0,87,56,36,0.00,40.00,8,5,0,0.00
2013-5-3,77.0,67.2,59.0,55.0,51.4,42.0,76,58,37,0.00,40.00,10,6,0,0.00
2013-5-4,72.0,64.5,59.0,46.0,41.2,35.0,55,43,27,0.00,40.00,12,8,0,0.00
2013-5-5,72.0,61.3,51.0,45.0,40.5,33.0,67,48,29,0.00,40.00,10,6,0,0.00
2013-5-6,76.0,63.8,49.0,46.0,39.9,36.0,69,43,26,0.00,40.00,8,5,0,0.00
2013-5-7,74.0,63.3,48.0,50.0,46.4,43.0,85,56,38,0.00,40.00,8,4,0,0.00
2013-5-8,77.0,64.2,49.0,57.0,49.7,45.0,92,62,32,0.00,40.00,7,3,0,0.06
2013-5-9,80.0,62.5,51.0,58.0,50.9,41.0,95,71,25,0.00,40.00,9,2,0,0.02
2013-5-10,64.0,57.9,45.0,59.0,54.5,42.0,94,88,76,0.00,40.00,12,7,0,0.05
2013-5-11,53.0,45.8,42.0,47.0,39.2,-99.9,93,83,60,0.00,40.00,21,9,0,0.02
2013-5-12,45.0,41.1,38.0,35.0,29.7,26.0,87,64,45,0.00,40.00,17,12,0,0.00
2013-5-13,57.0,42.9,32.0,34.0,25.4,17.0,95,58,21,0.00,40.00,11,4,0,0.00
2013-5-14,83.0,60.8,47.0,53.0,37.9,27.0,60,43,29,0.00,40.00,14,7,0,0.00
2013-5-15,80.0,75.6,69.0,59.0,50.3,44.0,61,42,28,0.00,40.00,16,12,0,0.00
2013-5-16,84.0,61.2,49.0,48.0,27.0,-99.9,86,50,19,0.00,40.00,10,4,0,0.00
2013-5-17,79.0,65.3,55.0,46.0,38.0,-99.9,63,44,30,0.00,40.00,10,6,0,0.00
2013-5-18,80.0,66.0,53.0,55.0,47.2,40.0,68,51,40,0.00,40.00,8,4,0,0.02
2013-5-19,86.0,72.4,56.0,60.0,54.2,47.0,71,54,38,0.00,40.00,7,4,0,0.00
2013-5-20,88.0,77.4,69.0,68.0,63.4,60.0,83,63,44,0.00,40.00,12,7,0,0.00
2013-5-21,82.0,75.2,64.0,65.0,63.0,62.0,94,67,50,0.00,40.00,11,7,0,0.08
2013-5-22,76.0,69.0,62.0,65.0,62.8,60.0,91,81,62,0.00,40.00,13,6,0,0.00
2013-5-23,63.0,56.2,49.0,60.0,53.0,44.0,94,89,79,0.00,40.00,14,8,0,0.01
2013-5-24,62.0,50.9,38.0,44.0,39.9,36.0,92,67,45,0.00,40.00,10,7,0,0.00
2013-5-25,68.0,53.9,40.0,45.0,39.2,34.0,95,63,28,0.00,40.00,6,3,0,0.00
2013-5-26,69.0,57.5,44.0,42.0,37.1,30.0,85,51,26,0.00,40.00,7,3,0,0.00
2013-5-27,62.0,55.1,51.0,52.0,42.6,31.0,95,68,32,0.00,40.00,9,7,0,0.00
2013-5-28,78.0,65.9,54.0,69.0,61.8,52.0,96,86,70,0.00,40.00,11,7,0,0.00
2013-5-29,80.0,72.4,64.0,67.0,64.1,61.0,89,75,65,0.00,40.00,12,7,0,0.01
2013-5-30,83.0,76.5,69.0,68.0,64.8,61.0,77,67,58,0.00,40.00,13,7,0,0.00
2013-5-31,76.0,72.9,68.0,66.0,64.9,62.0,84,76,68,0.00,40.00,12,8,0,0.00
2013-6-1,74.0,68.9,65.0,64.0,62.7,61.0,97,81,69,0.00,40.00,10,7,0,0.00
2013-6-2,68.0,60.1,50.0,63.0,54.5,44.0,93,82,67,0.00,40.00,14,10,0,0.00
2013-6-3,68.0,56.4,44.0,45.0,41.5,39.0,87,60,35,0.00,40.00,7,5,0,0.00
2013-6-4,74.0,59.9,46.0,47.0,44.6,42.0,95,62,32,0.00,40.00,7,3,0,0.00
2013-6-5,75.0,64.7,56.0,48.0,43.8,39.0,73,49,27,0.00,40.00,10,6,0,0.00
2013-6-6,73.0,64.0,57.0,53.0,48.0,44.0,71,57,42,0.00,40.00,10,7,0,0.00
2013-6-7,68.0,59.0,50.0,51.0,49.6,48.0,91,72,50,0.00,40.00,10,6,0,0.00
2013-6-8,75.0,64.3,50.0,53.0,50.4,49.0,95,64,39,0.00,40.00,5,2,0,0.00
2013-6-9,79.0,70.5,61.0,61.0,56.9,51.0,78,63,50,0.00,40.00,9,5,0,0.00
2013-6-10,72.0,67.6,65.0,66.0,64.0,60.0,96,88,68,0.00,40.00,9,6,0,0.01
2013-6-11,81.0,69.2,60.0,66.0,62.4,59.0,96,80,54,0.00,40.00,7,5,0,0.00
2013-6-12,83.0,73.7,65.0,71.0,66.6,63.0,95,79,62,0.00,40.00,7,3,0,0.01
2013-6-13,77.0,67.8,61.0,66.0,58.7,54.0,94,75,48,0.00,40.00,14,9,0,0.02
2013-6-14,80.0,66.4,56.0,58.0,55.1,49.0,95,71,34,0.00,40.00,8,4,0,0.00
2013-6-15,75.0,65.3,57.0,63.0,60.0,56.0,96,84,58,0.00,40.00,7,3,0,0.01
2013-6-16,80.0,71.2,65.0,66.0,62.9,59.0,93,76,50,0.00,40.00,11,8,0,0.00
2013-6-17,86.0,72.6,60.0,66.0,58.1,50.0,95,66,29,0.00,40.00,9,4,0,0.00
2013-6-18,74.0,66.5,60.0,61.0,56.8,47.0,94,73,49,0.00,40.00,10,7,0,0.00
2013-6-19,76.0,62.1,48.0,52.0,45.8,42.0,90,58,33,0.00,40.00,6,3,0,0.00
2013-6-20,83.0,66.4,56.0,56.0,52.7,50.0,83,64,35,0.00,40.00,4,2,0,0.00
2013-6-22,83.0,80.0,75.0,72.0,69.8,67.0,80,71,63,0.00,40.00,7,3,0,0.00
2013-6-23,88.0,75.3,66.0,67.0,65.5,64.0,91,72,47,0.00,40.00,9,5,0,0.00
2013-6-25,84.0,74.9,67.0,74.0,69.8,66.0,97,84,72,0.00,40.00,8,6,0,0.00
2013-6-26,81.0,70.3,66.0,71.0,67.3,65.0,97,91,66,0.00,40.00,6,4,0,0.01
2013-6-27,82.0,73.0,67.0,71.0,68.5,66.0,97,86,63,0.00,40.00,11,4,0,0.00
2013-6-28,78.0,71.6,65.0,69.0,64.2,60.0,96,79,56,0.00,40.00,12,6,0,0.00
2013-6-29,77.0,68.6,61.0,64.0,61.9,60.0,97,81,60,0.00,40.00,9,4,0,0.00
2013-6-30,79.0,68.4,63.0,61.0,59.0,57.0,89,73,48,0.00,40.00,10,6,0,0.00
2013-7-1,75.0,65.7,57.0,56.0,49.5,43.0,75,56,41,0.00,40.00,12,8,0,0.00
2013-7-2,70.0,63.3,56.0,63.0,56.7,51.0,88,79,66,0.00,40.00,8,6,0,0.00
2013-7-3,79.0,71.2,65.0,65.0,63.0,60.0,95,77,53,0.00,40.00,10,5,0,0.01
2013-7-4,78.0,70.4,62.0,65.0,61.7,59.0,95,76,54,0.00,40.00,4,2,0,0.00
2013-7-5,81.0,71.7,63.0,69.0,64.4,60.0,96,79,52,0.00,40.00,3,1,0,0.01
2013-7-6,81.0,72.6,67.0,69.0,66.8,65.0,93,82,61,0.00,40.00,4,2,0,0.00
2013-7-7,82.0,73.7,67.0,70.0,67.2,64.0,92,81,61,0.00,40.00,7,4,0,0.21
2013-7-8,80.0,73.3,70.0,71.0,69.2,68.0,94,87,73,0.00,40.00,7,3,0,0.01
2013-7-9,85.0,74.5,69.0,76.0,71.5,68.0,96,90,75,0.00,40.00,5,2,0,0.03
2013-7-10,83.0,76.9,67.0,75.0,69.7,57.0,94,79,50,0.00,40.00,10,6,0,0.00
2013-7-11,79.0,68.1,56.0,61.0,57.1,54.0,96,71,44,0.00,40.00,7,3,0,0.00
2013-7-12,80.0,67.6,54.0,62.0,57.3,53.0,96,73,41,0.00,40.00,8,2,0,0.16
2013-7-13,83.0,70.7,58.0,65.0,61.5,57.0,96,75,51,0.00,40.00,7,3,0,0.00
2013-7-14,87.0,76.2,64.0,71.0,66.1,62.0,94,72,52,0.00,40.00,6,3,0,0.00
2013-7-15,91.0,80.1,69.0,75.0,71.1,66.0,93,76,55,0.00,40.00,5,2,0,0.31
2013-7-16,89.0,81.3,73.0,75.0,72.7,70.0,96,77,53,0.00,40.00,5,2,0,0.01
2013-7-17,89.0,81.0,73.0,75.0,72.8,70.0,93,77,60,0.00,40.00,7,3,0,0.00
2013-7-18,91.0,83.1,73.0,76.0,73.2,71.0,93,73,55,0.00,40.00,7,3,0,0.00
2013-7-19,91.0,84.1,76.0,74.0,71.9,68.0,88,68,49,0.00,40.00,11,7,0,0.00
2013-7-20,84.0,76.9,68.0,73.0,65.3,-99.9,93,71,50,0.00,40.00,7,4,0,0.70
2013-7-21,83.0,72.8,64.0,67.0,63.8,60.0,95,74,51,0.00,40.00,5,3,0,0.00
2013-7-22,80.0,71.6,64.0,68.0,65.1,63.0,97,81,60,0.00,40.00,11,4,0,1.20
2013-7-23,80.0,71.9,61.0,68.0,63.9,54.0,91,76,57,0.00,40.00,12,6,0,0.01
2013-7-24,73.0,63.5,50.0,57.0,51.1,48.0,92,65,47,0.00,40.00,7,4,0,0.00
2013-7-25,76.0,64.5,53.0,58.0,54.4,52.0,96,72,45,0.00,40.00,3,2,0,0.00
2013-7-26,75.0,66.3,57.0,63.0,58.4,55.0,93,77,56,0.00,40.00,7,3,0,0.01
2013-7-27,71.0,65.6,58.0,64.0,59.9,49.0,96,83,66,0.00,40.00,12,6,0,0.00
2013-7-28,63.0,57.5,53.0,54.0,50.8,48.0,90,79,65,0.00,40.00,9,6,0,0.09
2013-7-29,70.0,61.3,56.0,56.0,53.9,51.0,88,77,58,0.00,40.00,8,4,0,0.00
2013-7-30,77.0,62.9,49.0,64.0,56.2,48.0,97,81,54,0.00,40.00,4,1,0,0.16
2013-7-31,68.0,66.6,65.0,67.0,64.3,61.0,96,92,86,0.00,40.00,3,1,0,0.15
2013-8-1,77.0,66.9,60.0,65.0,60.3,53.0,97,82,43,0.00,40.00,11,4,0,0.00
2013-8-2,76.0,66.9,55.0,66.0,61.2,54.0,94,82,71,0.00,40.00,8,3,0,0.00
2013-8-3,77.0,68.8,59.0,66.0,57.6,50.0,97,71,39,0.00,40.00,9,4,0,0.00
2013-8-4,76.0,64.3,53.0,57.0,53.5,51.0,96,70,41,0.00,40.00,7,3,0,0.00
2013-8-5,73.0,61.4,49.0,62.0,54.3,48.0,96,79,53,0.00,40.00,4,1,0,0.00
2013-8-6,78.0,68.6,62.0,69.0,64.1,61.0,95,86,72,0.00,40.00,6,4,0,0.54
2013-8-7,81.0,70.5,64.0,72.0,67.3,63.0,97,90,72,0.00,40.00,7,3,0,0.97
2013-8-8,79.0,70.0,61.0,68.0,61.9,59.0,94,77,54,0.00,40.00,9,5,0,0.00
2013-8-9,79.0,69.7,60.0,65.0,60.2,57.0,95,73,50,0.00,40.00,6,2,0,0.00
2013-8-10,82.0,72.1,63.0,64.0,60.6,58.0,94,70,45,0.00,40.00,5,3,0,0.00
2013-8-11,77.0,67.9,56.0,63.0,59.1,56.0,96,75,49,0.00,40.00,6,2,0,0.00
2013-8-12,80.0,69.3,65.0,68.0,64.0,61.0,95,84,65,0.00,40.00,4,2,0,0.67
2013-8-13,68.0,61.0,55.0,65.0,52.2,-99.9,98,78,49,0.00,40.00,9,5,0,0.01
2013-8-14,71.0,59.1,46.0,53.0,48.5,45.0,94,70,44,0.00,40.00,6,4,0,0.00
2013-8-15,72.0,55.2,46.0,57.0,42.8,-99.9,97,76,52,0.00,40.00,5,2,0,0.00
2013-8-16,77.0,63.6,49.0,58.0,50.0,-99.9,97,68,41,0.00,40.00,4,2,0,0.00
2013-8-17,77.0,64.1,51.0,59.0,51.7,-99.9,97,71,46,0.00,40.00,6,2,0,0.00
2013-8-18,80.0,66.4,52.0,65.0,57.6,51.0,96,76,45,0.00,40.00,5,2,0,0.00
2013-8-19,82.0,68.9,56.0,65.0,60.5,56.0,96,77,46,0.00,40.00,6,2,0,0.00
2013-8-20,84.0,71.6,58.0,67.0,62.4,57.0,96,76,49,0.00,40.00,6,2,0,0.00
2013-8-21,85.0,74.5,63.0,68.0,65.0,62.0,94,74,50,0.00,40.00,6,3,0,0.00
2013-8-22,78.0,70.7,65.0,70.0,66.5,64.0,96,86,75,0.00,40.00,10,4,0,0.08
2013-8-23,80.0,70.8,60.0,66.0,57.5,50.0,97,67,35,0.00,40.00,7,4,0,0.00
2013-8-24,82.0,67.3,53.0,62.0,55.2,52.0,97,70,36,0.00,40.00,5,2,0,0.00
2013-8-25,86.0,72.2,58.0,64.0,60.1,55.0,92,68,44,0.00,40.00,7,4,0,0.00
2013-8-26,86.0,76.3,65.0,71.0,65.3,60.0,84,69,58,0.00,40.00,8,5,0,0.00
2013-8-27,84.0,76.1,72.0,73.0,70.2,68.0,91,82,69,0.00,40.00,7,4,0,0.00
2013-8-28,83.0,79.6,70.0,73.0,70.5,68.0,94,74,68,0.00,40.00,9,5,0,0.00
2013-8-29,86.0,73.4,61.0,70.0,65.9,61.0,97,80,52,0.00,40.00,4,1,0,0.00
2013-8-30,89.0,76.7,65.0,71.0,66.9,64.0,95,74,49,0.00,40.00,9,4,0,0.00
2013-8-31,81.0,75.2,70.0,72.0,67.7,65.0,95,78,59,0.00,40.00,6,3,0,0.00
2013-9-1,85.0,75.8,68.0,69.0,67.9,66.0,95,78,56,0.00,40.00,8,4,0,0.00
2013-9-2,77.0,69.9,60.0,68.0,60.6,51.0,96,74,49,0.00,40.00,15,8,0,0.00
2013-9-3,76.0,64.7,57.0,55.0,52.3,49.0,86,65,43,0.00,40.00,10,6,0,0.00
2013-9-4,80.0,65.6,52.0,60.0,54.1,50.0,96,71,39,0.00,40.00,12,6,0,0.00
2013-9-5,76.0,64.6,56.0,56.0,47.9,36.0,95,60,23,0.00,40.00,8,4,0,0.00
2013-9-6,80.0,64.9,50.0,52.0,48.4,45.0,93,60,30,0.00,40.00,6,3,0,0.00
2013-9-7,87.0,71.3,61.0,65.0,55.8,-99.9,78,61,41,0.00,40.00,11,4,0,0.00
2013-9-8,77.0,70.2,63.0,64.0,61.8,60.0,95,76,55,0.00,40.00,10,4,0,0.00
2013-9-9,88.0,71.3,56.0,70.0,62.4,54.0,93,76,53,0.00,40.00,9,5,0,0.03
2013-9-10,96.0,85.5,75.0,71.0,65.2,58.0,83,55,28,0.00,40.00,14,8,0,0.00
2013-9-11,93.0,82.2,71.0,72.0,67.8,63.0,93,65,37,0.00,40.00,14,8,0,0.16
2013-9-12,81.0,72.1,61.0,69.0,60.5,49.0,95,71,33,0.00,40.00,15,6,0,0.00
2013-9-13,64.0,55.5,47.0,51.0,44.6,41.0,89,68,42,0.00,40.00,10,6,0,0.00
2013-9-14,69.0,54.1,39.0,45.0,39.8,36.0,97,65,29,0.00,40.00,5,2,0,0.00
2013-9-15,60.0,53.3,47.0,54.0,47.7,40.0,94,82,57,0.00,40.00,7,2,0,0.31
2013-9-16,64.0,56.7,49.0,54.0,50.1,46.0,96,80,52,0.00,40.00,8,5,0,0.00
2013-9-17,70.0,56.9,41.0,48.0,44.3,40.0,95,66,38,0.00,40.00,6,3,0,0.00
2013-9-18,68.0,54.1,51.0,52.0,47.8,47.0,88,79,54,0.00,40.00,3,2,0,0.00
2013-9-19,73.0,67.6,61.0,67.0,62.4,52.0,97,84,57,0.00,40.00,10,4,0,0.36
2013-9-20,72.0,70.6,66.0,69.0,67.1,65.0,94,88,80,0.00,40.00,8,6,0,0.14
2013-9-21,65.0,59.2,55.0,60.0,50.5,-99.9,95,76,54,0.00,40.00,14,9,0,0.03
2013-9-22,62.0,54.7,45.0,49.0,44.3,42.0,91,69,49,0.00,40.00,9,6,0,0.00
2013-9-23,63.0,51.3,39.0,47.0,43.4,38.0,97,77,50,0.00,40.00,6,3,0,0.00
2013-9-24,69.0,55.5,41.0,48.0,44.0,40.0,96,69,39,0.00,40.00,7,4,0,0.00
2013-9-25,72.0,56.7,45.0,53.0,47.8,44.0,96,75,43,0.00,40.00,6,3,0,0.00
2013-9-26,78.0,59.2,43.0,53.0,46.5,41.0,97,69,28,0.00,40.00,6,3,0,0.00
2013-9-27,77.0,59.9,44.0,54.0,48.3,43.0,96,70,36,0.00,40.00,7,3,0,0.00
2013-9-28,80.0,64.1,51.0,55.0,48.3,-99.9,96,64,31,0.00,40.00,10,4,0,0.00
2013-9-29,69.0,64.2,53.0,60.0,54.7,50.0,94,73,53,0.00,40.00,9,6,0,0.08
2013-9-30,72.0,56.4,44.0,56.0,49.5,44.0,97,81,48,0.00,40.00,8,2,0,0.00
2013-10-1,68.0,67.0,66.0,61.0,60.5,60.0,82,80,77,0.00,40.00,6,6,0,0.00
2013-10-2,83.0,69.7,61.0,62.0,54.8,44.0,97,66,28,0.00,40.00,5,3,0,0.00
2013-10-3,74.0,64.8,56.0,68.0,60.0,51.0,94,84,72,0.00,40.00,9,3,0,0.05
2013-10-4,79.0,71.3,64.0,69.0,66.0,62.0,93,83,71,0.00,40.00,6,4,0,0.00
2013-10-5,77.0,69.4,65.0,68.0,66.2,64.0,96,89,75,0.00,40.00,8,4,0,0.16
2013-10-6,68.0,62.7,53.0,66.0,59.9,51.0,95,90,77,0.00,40.00,8,6,0,0.20
2013-10-7,59.0,49.9,43.0,50.0,43.8,40.0,92,80,60,0.00,40.00,14,8,0,0.00
2013-10-8,71.0,52.6,42.0,48.0,44.4,40.0,95,77,42,0.00,40.00,7,3,0,0.00
2013-10-9,72.0,64.1,52.0,50.0,43.2,39.0,90,49,30,0.00,40.00,6,4,0,0.00
2013-10-10,73.0,56.8,41.0,50.0,43.8,40.0,97,67,32,0.00,40.00,4,1,0,0.00
2013-10-11,74.0,56.3,39.0,52.0,44.2,38.0,96,68,33,0.00,40.00,4,2,0,0.00
2013-10-12,78.0,61.8,45.0,62.0,46.3,-99.9,95,63,35,0.00,40.00,9,4,0,0.00
2013-10-13,64.0,55.6,46.0,61.0,47.2,42.0,96,76,46,0.00,40.00,11,5,0,0.00
2013-10-14,65.0,50.0,38.0,45.0,41.3,38.0,98,75,41,0.00,40.00,9,3,0,0.00
2013-10-15,63.0,53.8,43.0,60.0,49.3,42.0,95,85,77,0.00,40.00,8,4,0,0.10
2013-10-16,62.0,52.5,47.0,60.0,48.1,43.0,93,84,79,0.00,40.00,10,7,0,0.00
2013-10-17,50.0,48.5,46.0,47.0,46.0,44.0,96,91,85,0.00,40.00,11,6,0,0.19
2013-10-18,59.0,47.0,40.0,46.0,42.1,38.0,96,84,58,0.00,40.00,13,6,0,0.01
2013-10-19,50.0,43.1,42.0,41.0,36.5,-99.9,95,81,55,0.00,40.00,11,6,0,0.09
2013-10-20,59.0,48.4,41.0,42.0,39.2,37.0,85,71,50,0.00,40.00,12,6,0,0.00
2013-10-21,56.0,49.8,42.0,46.0,41.7,34.0,87,74,57,0.00,40.00,13,9,0,0.01
2013-10-22,46.0,39.2,31.0,33.0,29.8,27.0,88,69,55,0.00,40.00,12,8,0,0.00
2013-10-23,42.0,35.9,29.0,37.0,32.0,28.0,98,86,66,0.00,40.00,12,4,0,0.00
2013-10-24,41.0,35.2,33.0,35.0,33.5,32.0,98,93,80,0.00,40.00,10,6,0,0.06
2013-10-25,45.0,38.9,35.0,37.0,32.1,27.0,97,78,53,0.00,40.00,12,7,0,0.01
2013-10-26,49.0,42.8,39.0,39.0,29.3,-99.9,83,61,55,0.00,40.00,14,11,0,0.00
2013-10-27,53.0,44.0,35.0,36.0,32.7,29.0,93,66,39,0.00,40.00,10,4,0,0.00
2013-10-28,57.0,42.5,33.0,38.0,31.5,-99.9,90,70,49,0.00,40.00,8,4,0,0.00
2013-10-29,54.0,42.8,33.0,39.0,34.8,31.0,91,75,54,0.00,40.00,6,3,0,0.00
2013-10-30,62.0,49.6,36.0,54.0,43.6,35.0,96,81,55,0.00,40.00,6,3,0,0.28
2013-10-31,62.0,59.0,57.0,61.0,58.5,56.0,98,97,96,0.00,40.00,15,10,0,1.13
2013-11-1,56.0,46.9,44.0,54.0,42.9,39.0,94,85,74,0.00,40.00,17,11,0,0.08
2013-11-2,48.0,43.3,42.0,44.0,39.3,-99.9,96,90,74,0.00,40.00,9,6,0,0.22
2013-11-3,41.0,41.0,41.0,40.0,40.0,40.0,94,94,94,0.00,40.00,2,2,0,0.00
2013-11-4,49.0,47.6,44.0,39.0,34.0,30.0,71,59,48,0.00,40.00,9,7,0,0.00
2013-11-5,53.0,50.9,48.0,48.0,43.6,40.0,81,76,69,0.00,40.00,8,5,0,0.00
2013-11-6,56.0,51.7,42.0,52.0,46.5,39.0,94,83,59,0.00,40.00,15,11,0,0.35
2013-11-7,44.0,38.6,32.0,38.0,32.6,29.0,92,79,57,0.00,40.00,15,9,0,0.08
2013-11-8,45.0,37.7,32.0,33.0,31.1,29.0,98,78,56,0.00,40.00,7,4,0,0.05
2013-11-9,55.0,46.9,40.0,41.0,32.9,-99.9,71,60,54,0.00,40.00,20,13,0,0.01
2013-11-10,47.0,41.7,36.0,36.0,31.0,29.0,83,66,57,0.00,40.00,20,11,0,0.00
2013-11-11,44.0,37.4,27.0,38.0,31.6,21.0,96,80,66,0.00,40.00,12,9,0,0.17
2013-11-12,34.0,27.5,23.0,25.0,21.6,19.0,89,78,61,0.00,40.00,12,7,0,0.02
2013-11-13,31.0,24.1,21.0,21.0,19.5,18.0,89,83,62,0.00,40.00,9,6,0,0.00
2013-11-14,50.0,42.9,32.0,25.0,22.9,20.0,62,45,37,0.00,40.00,12,10,0,0.00
2013-11-15,48.0,42.9,37.0,31.0,27.4,24.0,61,54,48,0.00,40.00,9,7,0,0.00
2013-11-16,56.0,47.5,40.0,53.0,42.0,30.0,92,81,62,0.00,40.00,9,6,0,0.09
2013-11-17,63.0,56.5,46.0,59.0,53.1,39.0,95,88,73,0.00,40.00,30,14,0,0.94
2013-11-18,45.0,40.7,37.0,38.0,33.9,29.0,78,76,73,0.00,40.00,23,18,0,0.00
2013-11-19,44.0,37.5,29.0,26.0,24.4,23.0,86,61,44,0.00,40.00,7,2,0,0.00
2013-11-20,43.0,35.1,27.0,32.0,26.0,23.0,84,70,50,0.00,40.00,8,4,0,0.00
2013-11-21,48.0,43.8,39.0,44.0,39.1,32.0,96,83,70,0.00,40.00,8,4,0,0.23
2013-11-22,45.0,39.9,29.0,44.0,37.2,26.0,98,90,74,0.00,40.00,13,7,0,0.03
2013-11-23,29.0,25.2,17.0,26.0,18.2,8.0,92,75,55,0.00,40.00,18,10,0,0.00
2013-11-24,24.0,19.0,16.0,18.0,12.5,8.0,87,75,64,0.00,40.00,10,6,0,0.00
2013-11-25,30.0,24.6,19.0,25.0,14.5,7.0,89,65,54,0.00,40.00,12,10,0,0.00
2013-11-26,32.0,29.0,26.0,28.0,25.1,21.0,91,85,79,0.00,40.00,11,7,0,0.00
2013-11-27,32.0,24.9,21.0,17.0,14.8,13.0,79,66,47,0.00,40.00,16,10,0,0.00
2013-11-28,27.0,24.5,22.0,21.0,15.7,13.0,90,68,56,0.00,40.00,9,5,0,0.00
2013-11-29,36.0,29.2,21.0,24.0,19.8,18.0,92,69,46,0.00,40.00,6,2,0,0.00
2013-11-30,47.0,35.3,28.0,29.0,22.3,-99.9,74,61,49,0.00,40.00,10,6,0,0.00
2013-12-1,43.0,35.9,25.0,34.0,28.8,24.0,93,75,65,0.00,40.00,7,4,0,0.00
2013-12-2,39.0,30.5,23.0,32.0,26.6,22.0,97,86,64,0.00,40.00,6,2,0,0.00
2013-12-3,44.0,36.7,31.0,42.0,34.8,26.0,96,92,74,0.00,40.00,6,5,0,0.08
2013-12-4,58.0,47.3,40.0,55.0,46.1,39.0,96,94,87,0.00,40.00,10,5,0,0.00
2013-12-5,58.0,37.9,29.0,55.0,32.2,22.0,89,79,72,0.00,40.00,15,12,0,0.00
2013-12-6,28.0,25.7,22.0,22.0,18.6,14.0,76,73,69,0.00,40.00,9,8,0,0.00
2013-12-7,22.0,19.7,14.0,18.0,13.2,10.0,87,75,63,0.00,40.00,10,7,0,0.00
2013-12-8,25.0,18.6,12.0,24.0,14.3,9.0,96,83,69,0.00,40.00,11,6,0,0.00
2013-12-9,26.0,22.6,17.0,25.0,18.8,10.0,97,85,71,0.00,40.00,14,10,0,0.00
2013-12-10,21.0,13.9,4.0,13.0,6.6,-2.0,83,72,58,0.00,40.00,15,10,0,0.00
2013-12-11,21.0,17.4,16.0,19.0,13.4,10.0,93,83,74,0.00,40.00,14,8,0,0.00
2013-12-12,16.0,12.6,4.0,10.0,2.2,-7.0,77,63,52,0.00,40.00,11,8,0,0.00
2013-12-13,29.0,21.0,14.0,21.0,14.2,8.0,81,74,61,0.00,40.00,7,5,0,0.01
2013-12-14,26.0,21.1,19.0,23.0,17.8,-99.9,96,92,79,0.00,40.00,11,9,0,0.00
2013-12-15,23.0,18.4,13.0,22.0,16.4,10.0,96,91,85,0.00,40.00,15,10,0,0.00
2013-12-16,19.0,11.4,-3.0,14.0,7.2,-5.0,93,82,67,0.00,40.00,7,3,0,0.00
2013-12-17,27.0,21.2,15.0,25.0,19.3,14.0,94,92,89,0.00,40.00,11,8,0,0.01
2013-12-18,27.0,24.3,22.0,24.0,17.5,12.0,89,75,61,0.00,40.00,10,7,0,0.00
2013-12-19,41.0,36.2,30.0,34.0,29.9,18.0,90,78,60,0.00,40.00,10,5,0,0.10
2013-12-20,41.0,36.3,33.0,40.0,35.9,33.0,99,98,94,0.00,40.00,6,3,0,0.39
2013-12-21,33.0,32.1,32.0,33.0,30.5,-99.9,100,98,99,0.00,40.00,14,5,0,0.55
2013-12-22,34.0,32.7,32.0,34.0,32.2,30.0,100,98,91,0.00,40.00,11,5,0,0.21
2013-12-23,31.0,25.5,14.0,30.0,21.6,9.0,94,85,75,0.00,40.00,14,10,0,0.00
2013-12-24,18.0,11.7,6.0,11.0,6.9,2.0,88,81,72,0.00,40.00,11,7,0,0.00
2013-12-25,24.0,20.1,11.0,23.0,16.5,9.0,94,85,74,0.00,40.00,9,6,0,0.00
2013-12-26,29.0,24.5,23.0,25.0,20.4,15.0,97,84,71,0.00,40.00,13,8,0,0.00
2013-12-27,38.0,33.9,29.0,31.0,27.8,24.0,85,78,68,0.00,40.00,10,6,0,0.02
2013-12-28,46.0,39.2,35.0,34.0,31.1,29.0,82,72,61,0.00,40.00,11,8,0,0.00
2013-12-29,39.0,33.4,22.0,32.0,27.3,18.0,95,79,66,0.00,40.00,13,9,0,0.00
2013-12-30,22.0,19.1,16.0,17.0,12.2,9.0,84,74,65,0.00,40.00,10,7,0,0.00
2013-12-31,16.0,14.2,13.0,11.0,9.6,7.0,92,81,69,0.00,40.00,13,10,0,0.00
2014-1-1,14.0,12.9,11.0,13.0,11.0,9.0,93,92,91,0.00,40.00,12,8,0,0.00
2014-1-2,13.0,10.5,-1.0,11.0,7.9,-5.0,92,88,79,0.00,40.00,16,12,0,0.00